This demonstration page uses our WeatherBlox Daily Observations layout. Learn more.

Left ArrowRight Arrow

Hourly Observations for May 6, 2021

Temp ( °F °C ) Dew Point ( °F °C ) Humidity (%) Winds ( mph kmh ) Pressure ( in mb ) Visibility ( mi km ) Precip ( " mm )
12:15 am 00:15 Clear 42 5.7 35 1.7 76 76 Calm 30.20 1023 10 16 0.00 0.00
12:35 am 00:35 Clear 41 5 35 1.9 81 81 Calm 30.20 1023 10 16 0.00 0.00
12:55 am 00:55 Clear 41 5.1 36 2.2 82 82 Calm 30.20 1023 10 16 0.00 0.00
1:15 am 01:15 Clear 39 4.1 36 2.2 88 88 Calm 30.21 1023 10 16 0.00 0.00
1:35 am 01:35 Clear 40 4.2 36 2.2 87 87 Calm 30.20 1023 10 16 0.00 0.00
1:55 am 01:55 Clear 39 4 37 2.5 90 90 Calm 30.20 1023 10 16 0.00 0.00
2:15 am 02:15 Clear 39 4 37 2.7 91 91 Calm 30.19 1022 10 16 0.00 0.00
2:35 am 02:35 Clear 39 3.8 37 2.6 92 92 Calm 30.18 1022 10 16 0.00 0.00
2:55 am 02:55 Clear 39 4 36 2.4 89 89 Calm 30.17 1022 10 16 0.00 0.00
3:15 am 03:15 Clear 39 3.7 36 2.4 91 91 Calm 30.17 1022 10 16 0.00 0.00
3:35 am 03:35 Clear 39 3.7 35 1.8 88 88 Calm 30.17 1022 10 16 0.00 0.00
3:55 am 03:55 Clear 38 3.3 35 1.6 89 89 Calm 30.19 1022 10 16 0.00 0.00
4:15 am 04:15 Clear 37 3 35 1.7 91 91 Calm 30.19 1022 10 16 0.00 0.00
4:35 am 04:35 Clear 38 3.6 36 2.2 91 91 Calm 30.18 1022 10 16 0.00 0.00
4:55 am 04:55 Clear 38 3.1 35 1.9 92 92 Calm 30.18 1022 10 16 0.00 0.00
5:15 am 05:15 Clear 38 3.2 36 2.2 93 93 Calm 30.18 1022 10 16 0.00 0.00
5:35 am 05:35 Clear 39 3.8 37 2.6 92 92 Calm 30.17 1022 10 16 0.00 0.00
5:55 am 05:55 Partly Cloudy 39 4.1 37 2.8 91 91 Calm 30.17 1022 10 16 0.00 0.00
6:15 am 06:15 Clear 40 4.2 37 2.8 91 91 Calm 30.17 1022 10 16 0.00 0.00
6:35 am 06:35 Clear 39 3.7 37 2.5 92 92 Calm 30.16 1021 10 16 0.00 0.00
6:55 am 06:55 Sunny 39 4 37 2.6 91 91 Calm 30.17 1022 10 16 0.00 0.00
7:15 am 07:15 Sunny 40 4.2 37 2.7 90 90 Calm 30.17 1022 10 16 0.00 0.00
7:35 am 07:35 Sunny 40 4.2 37 2.9 91 91 Calm 30.17 1022 10 16 0.00 0.00
7:55 am 07:55 Partly Cloudy 41 5 38 3.2 88 88 Calm 30.17 1022 10 16 0.00 0.00
8:15 am 08:15 Mostly Cloudy 43 6.3 38 3.5 82 82 Calm 30.17 1022 10 16 0.00 0.00
8:35 am 08:35 Cloudy 46 7.8 37 2.7 70 70 SSE 5 7 30.17 1022 10 16 0.00 0.00
8:55 am 08:55 Cloudy 48 9 33 0.7 56 56 SSE 6 9 30.16 1021 10 16 0.00 0.00
9:15 am 09:15 Partly Cloudy 50 10 31 -0.5 48 48 SSE 8 13 30.16 1021 10 16 0.00 0.00
9:35 am 09:35 Partly Cloudy 52 10.9 31 -0.6 45 45 S 8 13 30.15 1021 10 16 0.00 0.00
9:55 am 09:55 Mostly Cloudy 53 11.5 30 -0.9 43 43 S 8 13 30.15 1021 10 16 0.00 0.00
10:15 am 10:15 Cloudy 54 12.2 30 -1.3 39 39 S 9 15 30.14 1021 10 16 0.00 0.00
10:35 am 10:35 Cloudy 55 12.5 31 -0.8 40 40 SSE 9 15 30.13 1020 10 16 0.00 0.00
10:55 am 10:55 Cloudy 56 13.3 32 0.1 41 41 S 8 13 30.13 1020 10 16 0.00 0.00
11:15 am 11:15 Cloudy 56 13.5 31 -0.4 39 39 S 12 19 30.12 1020 10 16 0.00 0.00
11:35 am 11:35 Cloudy 57 13.8 32 0 39 39 SSW 9 15 30.11 1020 10 16 0.00 0.00
11:55 am 11:55 Cloudy 58 14.7 34 0.9 39 39 S 12 19 30.10 1019 10 16 0.00 0.00
12:15 pm 12:15 Cloudy 58 14.4 34 0.9 40 40 SSW 14 22 30.10 1019 10 16 0.00 0.00
12:35 pm 12:35 Cloudy 57 14 35 1.6 43 43 SW 12 19 30.10 1019 10 16 0.00 0.00
12:55 pm 12:55 Cloudy with Drizzle 56 13.6 35 1.9 45 45 SSW 14 22 30.10 1019 10 16 0.00 0.00
1:15 pm 13:15 Cloudy with Light Rain 56 13.4 37 2.9 49 49 SSW 15 24 30.09 1019 10 16 0.00 0.00
1:35 pm 13:35 Cloudy with Light Rain 54 12.2 42 5.4 63 63 SSW 12 19 30.08 1019 10 16 0.00 0.00
1:55 pm 13:55 Cloudy with Drizzle 55 12.5 43 5.9 64 64 S 8 13 30.07 1018 10 16 0.00 0.00
2:15 pm 14:15 Cloudy 56 13.2 43 5.9 62 62 S 9 15 30.06 1018 10 16 0.00 0.00
2:35 pm 14:35 Cloudy 56 13.5 42 5.4 58 58 SSW 10 17 30.05 1018 10 16 0.00 0.00
2:55 pm 14:55 Cloudy with Thunderstorms 56 13.2 40 4.7 57 57 SW 15 24 30.05 1018 10 16 0.00 0.00
3:15 pm 15:15 Cloudy 56 13.3 41 4.9 57 57 SW 10 17 30.04 1017 10 16 0.00 0.00
3:35 pm 15:35 Cloudy with Light Rain 56 13.5 41 4.8 56 56 SW 8 13 30.03 1017 10 16 0.00 0.00
3:55 pm 15:55 Cloudy with Drizzle 57 13.8 41 5.2 56 56 SW 10 17 30.02 1017 10 16 0.00 0.00
4:15 pm 16:15 Cloudy 57 14.1 41 5.1 55 55 S 12 19 30.00 1016 10 16 0.00 0.00
4:35 pm 16:35 Cloudy 57 14 42 5.7 58 58 SW 9 15 29.99 1015 10 16 0.00 0.00
4:55 pm 16:55 Cloudy 56 13.5 42 5.6 59 59 SW 9 15 29.99 1016 10 16 0.00 0.00
5:15 pm 17:15 Cloudy with Light Rain 55 13 43 6.1 63 63 SW 10 17 30.00 1016 10 16 0.00 0.00
5:35 pm 17:35 Cloudy with Light Rain 54 12 45 7.4 74 74 SSW 6 9 30.00 1016 10 16 0.00 0.00
5:55 pm 17:55 Cloudy 53 11.8 47 8.3 79 79 SSW 6 9 30.00 1016 10 16 0.00 0.00
6:15 pm 18:15 Cloudy with Light Rain 53 11.7 47 8.4 80 80 Calm 29.99 1016 10 16 0.01 0.25
6:35 pm 18:35 Cloudy with Rain 50 9.8 45 7.2 84 84 W 15 24 30.03 1017 10 16 0.02 0.51
6:55 pm 18:55 Cloudy with Rain 47 8.5 45 7.4 93 93 WNW 14 22 30.04 1017 5 8 0.06 1.52
7:15 pm 19:15 Cloudy with Rain 47 8.2 45 7.1 93 93 WNW 5 7 30.04 1017 3 5 0.09 2.29
7:35 pm 19:35 Cloudy with Heavy Rain 47 8.3 44 6.8 90 90 NNE 9 15 30.01 1016 5 8 0.18 4.57
7:55 pm 19:55 Cloudy with Light Rain 48 8.7 43 6.1 84 84 NW 7 11 30.01 1016 10 16 0.22 5.59
8:15 pm 20:15 Mostly Cloudy 48 9.1 45 7.4 89 89 W 9 15 30.02 1017 10 16 0.00 0.00
8:35 pm 20:35 Cloudy 48 9.1 46 7.6 90 90 W 9 15 30.03 1017 10 16 0.00 0.00
8:55 pm 20:55 Cloudy with Drizzle 49 9.3 47 8.2 93 93 WNW 6 9 30.03 1017 10 16 0.00 0.00
9:15 pm 21:15 Cloudy 48 8.8 46 7.7 93 93 NNW 12 19 30.04 1017 10 16 0.00 0.00
9:35 pm 21:35 Cloudy 47 8.6 46 7.5 93 93 NNW 12 19 30.05 1017 10 16 0.00 0.00
9:55 pm 21:55 Cloudy 47 8.1 44 6.7 91 91 NW 10 17 30.06 1018 10 16 0.00 0.00
10:15 pm 22:15 Cloudy 46 8 44 6.5 90 90 NNW 12 19 30.07 1018 10 16 0.00 0.00
10:35 pm 22:35 Cloudy 46 8 44 6.5 90 90 NNW 10 17 30.08 1019 10 16 0.00 0.00
10:55 pm 22:55 Cloudy 46 7.9 43 6 88 88 NNW 12 19 30.08 1019 10 16 0.00 0.00
11:15 pm 23:15 Mostly Cloudy 45 7.4 42 5.5 88 88 NNW 9 15 30.09 1019 10 16 0.00 0.00
11:35 pm 23:35 Partly Cloudy 44 6.7 41 5 89 89 NW 10 17 30.09 1019 10 16 0.00 0.00
11:55 pm 23:55 Clear 43 6.2 40 4.5 89 89 NW 9 15 30.09 1019 10 16 0.00 0.00

Powered by AerisWeather